TITAN 3C TRANSTAGE DEB, 43448

Orbit data source: Space-Track

TITAN 3C TRANSTAGE DEB, 43448 is space debris in GEO originally from a launch on Sun, 09 Feb 1969 UTC launched from the Air Force Eastern Test Range (AFETR). Debris objects in space refer to the collection of defunct objects orbiting the Earth. Examples of debris include non-operational satellites, rocket bodies, and fragments generated from explosions, collisions, or faulty payload assembly.

Not visible in the next 10 days
Identifier
43448, 1969-013H
Orbit
GEO
Country
Flag of USUS
Related business
Manufacturer
Martin Marietta
Mission
Spacecraft
Bus & Motor
Unknown
Mass
Unknown
Launch date (UTC)
1969-02-09 (57 years ago)
Launch vehicle
Unknown
Launch site
Air Force Eastern Test Range (AFETR)
Object type
Payload
Rocket body
Debris
Shape & HBR
Unknown shape, 1.1 m
Radar Cross Section
RCS unknown

Expand to show TLE details & history
Last TLE update: 18 hours ago

TLE from 18 hours ago
0 TITAN 3C TRANSTAGE DEB
1 43448U 69013H   25351.45498554 -.00000209  00000-0  00000-0 0  9994
2 43448   0.7321 121.0794 0254028  20.6613 220.1042  0.98709024 27752
Epoch: 2025-12-17T10:55Z
TLE epoch observation values (Epoch: 2025-12-17T10:55:10.750Z)
Latitude
-0.61972°
Longitude
109.8787°
Altitude
37,063.894 km
Speed
2.999 km/s
True Right ascension
23h 59m 59s
True Declination
0° 37' 09"
Sunlit
Object was in daylight at epoch
Visualization orbit readout
Latitude
Unknown
Longitude
Unknown
Altitude
Unknown
Speed
Unknown
Apparent Right ascension
Unknown
Apparent Declination
Unknown
Sunlit
N/A
Visualization observer readout
Local Sidereal Time
04:06:07
Azimuth
Unknown
Elevation
Unknown
Doppler factor
Unknown
Orbital elements
Apogee altitude
37,313.929 km
Perigee altitude
35,149.119 km
Semi-major axis
42,609.661 km
Eccentricity
0.0254
Inclination
0.7321°
RAAN
121.0794°
Arg. of periapsis
20.6613°
True anomaly
218.27384°
Mean anomaly
220.1042°
Eccentric anomaly
219.1846°
Mean motion
0.24676 °/min
Orbital period
1,458.89 mins
BSTAR
0
Loading maneuver chart data...
Computing Atmospheric mass density...

Documentation

Showing up to 5 results
|